DELTA 1 DEB, 26837

Orbit data source: Space-Track

DELTA 1 DEB, 26837 is space debris in SSO originally from a launch on Thu, 12 Jun 1975 UTC launched from the Air Force Western Test Range (AFWTR). Debris objects in space refer to the collection of defunct objects orbiting the Earth. Examples of debris include non-operational satellites, rocket bodies, and fragments generated from explosions, collisions, or faulty payload assembly.

Loading next visibility...
Identifier
26837, 1975-052KR
Orbit
SSO
Country
Flag of USUS
Related business
Manufacturer
Unknown
Mission
Spacecraft
Bus & Motor
Unknown
Mass
Unknown
Launch date (UTC)
1975-06-12 (50 years ago)
Launch vehicle
Unknown
Launch site
Air Force Western Test Range (AFWTR)
Object type
Payload
Rocket body
Debris
Shape & HBR
Unknown shape, 0.1 m
Radar Cross Section
Small (<0.1 m²)

Expand to show TLE details & history
Last TLE update: 2 days ago

TLE from 2 days ago
0 DELTA 1 DEB
1 26837U 75052KR  25299.26216219  .00000203  00000-0  60644-3 0  9999
2 26837  99.6874 133.8166 0282422  64.0067 349.1305 13.05551687221171
Epoch: 2025-10-26T06:17Z
TLE epoch observation values (Epoch: 2025-10-26T06:17:30.813Z)
Latitude
51.55148°
Longitude
-7.79295°
Altitude
1,037.491 km
Speed
7.439 km/s
True Right ascension
08h 05m 51s
True Declination
51° 23' 25"
Sunlit
Object was in daylight at epoch
Visualization orbit readout
Latitude
Unknown
Longitude
Unknown
Altitude
Unknown
Speed
Unknown
Apparent Right ascension
Unknown
Apparent Declination
Unknown
Sunlit
N/A
Visualization observer readout
Local Sidereal Time
16:42:07
Azimuth
Unknown
Elevation
Unknown
Doppler factor
Unknown
Orbital elements
Apogee altitude
1,452.863 km
Perigee altitude
1,022.683 km
Semi-major axis
7,615.91 km
Eccentricity
0.02824
Inclination
99.6874°
RAAN
133.8166°
Arg. of periapsis
64.0067°
True anomaly
348.49835°
Mean anomaly
349.1305°
Eccentric anomaly
348.81666°
Mean motion
3.26558 °/min
Orbital period
110.24 mins
BSTAR
0.00060644
Loading maneuver chart data...
Computing Atmospheric mass density...
Loading historical data...
Loading historical data...
Loading historical data...
Loading historical data...
Loading historical data...
Loading historical data...
Loading historical data...

Documentation

Showing up to 5 results
|